AAL2928 KPHL-KBOS

Flight info

Callsign AAL2928
Flight time 0h 45m
Altitude 27000
Route DITCH DCT LUIGI DCT HNNAH DCT JFK ROBUC3
Aircraft A321/M-SDE3GIRWZ/LB2

Departure

Time 2026-05-07 12:55
Airport Philadelphia International Airport (KPHL)

Arrival

Time 2026-05-07 13:40
Airport Boston Logan International Airport (KBOS)
Time Latitude Longitude Altitude Speed Heading
2026-05-07 12:31 39.87336 -75.24437 26 ft 0 kts 36°
2026-05-07 12:45 39.87322 -75.24450 31 ft 4 kts 36°
2026-05-07 12:45 39.87304 -75.24468 31 ft 4 kts 34°
2026-05-07 12:46 39.87284 -75.24479 30 ft 4 kts 336°
2026-05-07 12:46 39.87275 -75.24463 30 ft 4 kts 258°
2026-05-07 12:46 39.87280 -75.24436 30 ft 1 kts 255°
2026-05-07 12:49 39.87276 -75.24457 31 ft 7 kts 255°
2026-05-07 12:49 39.87256 -75.24519 29 ft 7 kts 224°
2026-05-07 12:50 39.87216 -75.24518 26 ft 5 kts 149°
2026-05-07 12:50 39.87207 -75.24446 26 ft 11 kts 81°
2026-05-07 12:50 39.87225 -75.24352 26 ft 10 kts 75°
2026-05-07 12:50 39.87242 -75.24265 26 ft 9 kts 75°
2026-05-07 12:51 39.87246 -75.24171 26 ft 11 kts 119°
2026-05-07 12:51 39.87174 -75.24112 26 ft 13 kts 156°
2026-05-07 12:51 39.87088 -75.24078 25 ft 12 kts 166°
2026-05-07 12:51 39.87008 -75.24051 28 ft 12 kts 166°
2026-05-07 12:52 39.86928 -75.24023 27 ft 11 kts 158°
2026-05-07 12:52 39.86911 -75.23941 25 ft 10 kts 80°
2026-05-07 12:52 39.86926 -75.23858 25 ft 11 kts 76°
2026-05-07 12:52 39.86954 -75.23719 25 ft 18 kts 75°
2026-05-07 12:53 39.86985 -75.23563 25 ft 17 kts 75°
2026-05-07 12:53 39.87003 -75.23453 28 ft 8 kts 97°
2026-05-07 12:53 39.86963 -75.23414 27 ft 8 kts 160°
2026-05-07 12:53 39.86909 -75.23401 29 ft 9 kts 194°
2026-05-07 12:54 39.86896 -75.23439 28 ft 4 kts 256°
2026-05-07 12:54 39.86880 -75.23521 28 ft 29 kts 255°
2026-05-07 12:54 39.86764 -75.24107 26 ft 101 kts 255°
2026-05-07 12:54 39.86538 -75.25237 27 ft 154 kts 255°
2026-05-07 12:55 39.86249 -75.26655 480 ft 163 kts 257°
2026-05-07 12:55 39.85907 -75.28072 1203 ft 167 kts 244°
2026-05-07 12:55 39.85248 -75.29338 1793 ft 175 kts 235°
2026-05-07 12:55 39.84439 -75.30650 2099 ft 197 kts 233°
2026-05-07 12:56 39.83533 -75.32093 2392 ft 220 kts 233°
2026-05-07 12:56 39.82511 -75.33726 2730 ft 245 kts 234°
2026-05-07 12:56 39.81203 -75.35286 3276 ft 267 kts 211°
2026-05-07 12:56 39.79510 -75.35920 4033 ft 278 kts 185°
2026-05-07 12:57 39.77580 -75.35476 4884 ft 290 kts 159°
2026-05-07 12:57 39.75935 -75.33927 5744 ft 299 kts 134°
2026-05-07 12:57 39.74898 -75.31543 6580 ft 309 kts 112°
2026-05-07 12:57 39.74266 -75.28853 7354 ft 314 kts 109°
2026-05-07 12:58 39.73706 -75.26083 8097 ft 320 kts 107°
2026-05-07 12:58 39.73565 -75.23157 8791 ft 332 kts 85°
2026-05-07 12:58 39.73886 -75.20163 9492 ft 338 kts 83°
2026-05-07 12:58 39.74234 -75.17121 10152 ft 344 kts 83°
2026-05-07 12:59 39.74602 -75.13944 10358 ft 368 kts 83°
2026-05-07 12:59 39.74996 -75.10559 10495 ft 390 kts 83°
2026-05-07 12:59 39.75408 -75.07003 10864 ft 403 kts 83°
2026-05-07 12:59 39.75827 -75.03371 11430 ft 409 kts 83°
2026-05-07 13:00 39.76247 -74.99694 12033 ft 415 kts 83°
2026-05-07 13:00 39.76672 -74.95963 12636 ft 420 kts 83°
2026-05-07 13:00 39.77099 -74.92192 13244 ft 425 kts 83°
2026-05-07 13:00 39.77530 -74.88363 13832 ft 431 kts 83°
2026-05-07 13:01 39.77963 -74.84489 14350 ft 436 kts 83°
2026-05-07 13:01 39.78418 -74.80564 14861 ft 442 kts 80°
2026-05-07 13:01 39.79243 -74.76688 15360 ft 447 kts 69°
2026-05-07 13:01 39.80564 -74.73015 15854 ft 451 kts 57°
2026-05-07 13:02 39.82341 -74.69656 16331 ft 452 kts 46°
2026-05-07 13:02 39.84490 -74.66741 16794 ft 450 kts 35°
2026-05-07 13:02 39.86975 -74.64195 17265 ft 452 kts 30°
2026-05-07 13:02 39.89462 -74.61753 17744 ft 456 kts 30°
2026-05-07 13:03 39.92012 -74.59248 18221 ft 461 kts 30°
2026-05-07 13:03 39.94580 -74.56723 18631 ft 465 kts 30°
2026-05-07 13:03 39.97175 -74.54164 19031 ft 469 kts 30°
2026-05-07 13:03 39.99787 -74.51580 19424 ft 472 kts 30°
2026-05-07 13:04 40.02412 -74.48976 19800 ft 476 kts 30°
2026-05-07 13:04 40.05054 -74.46348 20170 ft 479 kts 30°
2026-05-07 13:04 40.07710 -74.43701 20557 ft 482 kts 30°
2026-05-07 13:04 40.10387 -74.41031 20920 ft 486 kts 30°
2026-05-07 13:05 40.13082 -74.38343 21289 ft 489 kts 29°
2026-05-07 13:05 40.14912 -74.36520 21540 ft 491 kts 29°
2026-05-07 13:05 40.17608 -74.33839 21916 ft 494 kts 29°
2026-05-07 13:05 40.20360 -74.31107 22297 ft 498 kts 29°
2026-05-07 13:06 40.23126 -74.28358 22665 ft 502 kts 29°
2026-05-07 13:06 40.25910 -74.25584 23045 ft 505 kts 29°
2026-05-07 13:06 40.28721 -74.22775 23414 ft 509 kts 29°
2026-05-07 13:06 40.31540 -74.19947 23739 ft 513 kts 29°
2026-05-07 13:07 40.34382 -74.17091 24053 ft 516 kts 29°
2026-05-07 13:07 40.37240 -74.14219 24376 ft 519 kts 29°
2026-05-07 13:07 40.40117 -74.11325 24696 ft 522 kts 28°
2026-05-07 13:07 40.43015 -74.08407 25013 ft 525 kts 28°
2026-05-07 13:08 40.45880 -74.05401 25302 ft 534 kts 34°
2026-05-07 13:08 40.48510 -74.01875 25611 ft 546 kts 44°
2026-05-07 13:08 40.50885 -73.97941 25906 ft 551 kts 46°
2026-05-07 13:08 40.53250 -73.93970 26212 ft 554 kts 46°
2026-05-07 13:09 40.55641 -73.89963 26503 ft 557 kts 46°
2026-05-07 13:09 40.58041 -73.85944 26807 ft 560 kts 46°
2026-05-07 13:09 40.60413 -73.81962 26930 ft 559 kts 46°
2026-05-07 13:09 40.62693 -73.78129 26954 ft 554 kts 46°
2026-05-07 13:10 40.65106 -73.74206 26951 ft 551 kts 44°
2026-05-07 13:10 40.67611 -73.70405 26954 ft 548 kts 41°
2026-05-07 13:10 40.70190 -73.66697 26952 ft 547 kts 40°
2026-05-07 13:10 40.72797 -73.63043 26950 ft 546 kts 39°
2026-05-07 13:11 40.75408 -73.59385 26938 ft 547 kts 39°
2026-05-07 13:11 40.78001 -73.55706 26942 ft 550 kts 40°
2026-05-07 13:11 40.80555 -73.51998 26574 ft 543 kts 41°
2026-05-07 13:11 40.83063 -73.48286 26032 ft 538 kts 41°
2026-05-07 13:12 40.85527 -73.44602 25495 ft 533 kts 42°
2026-05-07 13:12 40.87968 -73.40949 24963 ft 528 kts 42°
2026-05-07 13:12 40.90392 -73.37333 24433 ft 522 kts 42°
2026-05-07 13:12 40.92770 -73.33807 23926 ft 517 kts 41°
2026-05-07 13:13 40.95154 -73.30283 23359 ft 511 kts 41°
2026-05-07 13:13 40.97515 -73.26803 22976 ft 507 kts 41°
2026-05-07 13:13 40.99872 -73.23331 22901 ft 505 kts 42°
2026-05-07 13:13 41.02219 -73.19866 22933 ft 506 kts 42°
2026-05-07 13:14 41.04567 -73.16387 22930 ft 506 kts 42°
2026-05-07 13:14 41.06910 -73.12904 22938 ft 506 kts 42°
2026-05-07 13:14 41.09248 -73.09417 22934 ft 507 kts 42°
2026-05-07 13:14 41.11586 -73.05918 22936 ft 506 kts 42°
2026-05-07 13:15 41.13924 -73.02415 22934 ft 506 kts 42°
2026-05-07 13:15 41.16259 -72.98914 22936 ft 506 kts 42°
2026-05-07 13:15 41.18589 -72.95418 22925 ft 506 kts 42°
2026-05-07 13:15 41.20809 -72.91762 22921 ft 511 kts 51°
2026-05-07 13:16 41.22638 -72.87696 22838 ft 515 kts 60°
2026-05-07 13:16 41.24261 -72.83461 22682 ft 514 kts 61°
2026-05-07 13:16 41.25879 -72.79226 22407 ft 511 kts 61°
2026-05-07 13:16 41.27482 -72.75026 22153 ft 508 kts 61°
2026-05-07 13:17 41.29070 -72.70862 21890 ft 505 kts 61°
2026-05-07 13:17 41.30652 -72.66708 21619 ft 501 kts 61°
2026-05-07 13:17 41.32221 -72.62576 21364 ft 498 kts 61°
2026-05-07 13:17 41.33756 -72.58524 21117 ft 495 kts 62°
2026-05-07 13:18 41.35318 -72.54397 20873 ft 492 kts 62°
2026-05-07 13:18 41.36835 -72.50389 20912 ft 490 kts 62°
2026-05-07 13:18 41.38396 -72.46271 20907 ft 491 kts 62°
2026-05-07 13:18 41.39909 -72.42272 20904 ft 490 kts 62°
2026-05-07 13:19 41.41462 -72.38156 20905 ft 491 kts 62°
2026-05-07 13:19 41.42975 -72.34147 20902 ft 491 kts 62°
2026-05-07 13:19 41.44509 -72.30084 20898 ft 491 kts 62°
2026-05-07 13:19 41.46040 -72.26022 20897 ft 490 kts 62°
2026-05-07 13:20 41.47565 -72.21962 20892 ft 490 kts 62°
2026-05-07 13:20 41.49087 -72.17891 20753 ft 490 kts 62°
2026-05-07 13:20 41.50520 -72.14003 20506 ft 488 kts 63°
2026-05-07 13:20 41.51999 -72.09944 20248 ft 484 kts 63°
2026-05-07 13:21 41.53457 -72.05914 20019 ft 482 kts 63°
2026-05-07 13:21 41.54910 -72.01897 19776 ft 478 kts 63°
2026-05-07 13:21 41.56327 -71.97882 19538 ft 476 kts 65°
2026-05-07 13:21 41.57629 -71.93839 19283 ft 473 kts 68°
2026-05-07 13:22 41.58826 -71.89823 18787 ft 469 kts 69°
2026-05-07 13:22 41.59993 -71.85723 18349 ft 462 kts 70°
2026-05-07 13:22 41.61105 -71.81773 17867 ft 458 kts 70°
2026-05-07 13:22 41.62241 -71.77772 17348 ft 452 kts 70°
2026-05-07 13:23 41.63368 -71.73871 16854 ft 448 kts 69°
2026-05-07 13:23 41.64486 -71.70054 16360 ft 445 kts 69°
2026-05-07 13:23 41.65628 -71.66183 15924 ft 439 kts 69°
2026-05-07 13:23 41.66717 -71.62499 15793 ft 424 kts 69°
2026-05-07 13:24 41.67785 -71.58887 15631 ft 411 kts 69°
2026-05-07 13:24 41.68823 -71.55364 15278 ft 405 kts 69°
2026-05-07 13:24 41.69848 -71.51864 14868 ft 402 kts 70°
2026-05-07 13:24 41.70858 -71.48398 14473 ft 398 kts 70°
2026-05-07 13:25 41.71858 -71.44968 14072 ft 394 kts 70°
2026-05-07 13:25 41.73018 -71.41663 13666 ft 391 kts 59°
2026-05-07 13:25 41.74374 -71.38508 13254 ft 388 kts 59°
2026-05-07 13:25 41.75707 -71.35402 12872 ft 384 kts 59°
2026-05-07 13:26 41.77033 -71.32302 12485 ft 381 kts 59°
2026-05-07 13:26 41.78341 -71.29235 12105 ft 378 kts 59°
2026-05-07 13:26 41.79627 -71.26212 11734 ft 375 kts 59°
2026-05-07 13:26 41.80904 -71.23210 11473 ft 366 kts 59°
2026-05-07 13:27 41.82156 -71.20263 11065 ft 363 kts 59°
2026-05-07 13:27 41.83416 -71.17349 10711 ft 359 kts 58°
2026-05-07 13:27 41.84686 -71.14483 10261 ft 355 kts 58°
2026-05-07 13:27 41.85952 -71.11659 9885 ft 353 kts 58°
2026-05-07 13:28 41.87216 -71.08843 9502 ft 351 kts 57°
2026-05-07 13:28 41.88462 -71.06054 9162 ft 346 kts 58°
2026-05-07 13:28 41.89689 -71.03290 8819 ft 341 kts 58°
2026-05-07 13:28 41.90878 -71.00608 8647 ft 330 kts 57°
2026-05-07 13:29 41.92042 -70.97976 8303 ft 325 kts 57°
2026-05-07 13:29 41.93223 -70.95411 7963 ft 320 kts 54°
2026-05-07 13:29 41.94439 -70.92981 7651 ft 315 kts 53°
2026-05-07 13:29 41.95683 -70.90594 7322 ft 310 kts 52°
2026-05-07 13:30 41.96926 -70.88226 7181 ft 304 kts 52°
2026-05-07 13:30 41.98138 -70.85907 7072 ft 303 kts 52°
2026-05-07 13:30 41.99338 -70.83595 6929 ft 297 kts 52°
2026-05-07 13:30 42.00486 -70.81362 6814 ft 284 kts 51°
2026-05-07 13:31 42.01741 -70.79434 6691 ft 273 kts 39°
2026-05-07 13:31 42.03096 -70.77652 6580 ft 271 kts 40°
2026-05-07 13:31 42.04452 -70.75859 6459 ft 269 kts 40°
2026-05-07 13:31 42.05764 -70.74114 6380 ft 268 kts 40°
2026-05-07 13:32 42.07095 -70.72347 6305 ft 272 kts 38°
2026-05-07 13:32 42.08688 -70.70875 6190 ft 278 kts 19°
2026-05-07 13:32 42.10471 -70.70165 6028 ft 257 kts 360°
2026-05-07 13:32 42.12195 -70.70184 5746 ft 244 kts 345°
2026-05-07 13:33 42.13801 -70.70858 5282 ft 240 kts 328°
2026-05-07 13:33 42.15152 -70.72093 5016 ft 230 kts 313°
2026-05-07 13:33 42.16283 -70.73584 4768 ft 225 kts 312°
2026-05-07 13:33 42.17386 -70.75048 4555 ft 220 kts 313°
2026-05-07 13:34 42.18448 -70.76457 4331 ft 210 kts 313°
2026-05-07 13:34 42.20461 -70.79133 3860 ft 196 kts 314°
2026-05-07 13:34 42.21415 -70.80403 3644 ft 190 kts 314°
2026-05-07 13:35 42.22349 -70.81645 3437 ft 188 kts 314°
2026-05-07 13:35 42.23280 -70.82886 3223 ft 188 kts 315°
2026-05-07 13:35 42.24206 -70.84119 3135 ft 185 kts 315°
2026-05-07 13:35 42.25089 -70.85295 2950 ft 175 kts 315°
2026-05-07 13:36 42.25936 -70.86424 2726 ft 168 kts 315°
2026-05-07 13:36 42.26752 -70.87512 2504 ft 162 kts 315°
2026-05-07 13:36 42.27535 -70.88557 2286 ft 154 kts 314°
2026-05-07 13:36 42.28273 -70.89541 2112 ft 143 kts 314°
2026-05-07 13:37 42.28961 -70.90460 1902 ft 136 kts 314°
2026-05-07 13:37 42.29626 -70.91348 1716 ft 133 kts 314°
2026-05-07 13:37 42.30281 -70.92223 1511 ft 132 kts 314°
2026-05-07 13:37 42.30929 -70.93090 1320 ft 131 kts 314°
2026-05-07 13:38 42.31577 -70.93956 1127 ft 131 kts 315°
2026-05-07 13:38 42.32227 -70.94824 952 ft 132 kts 315°
2026-05-07 13:38 42.32877 -70.95703 752 ft 132 kts 314°
2026-05-07 13:38 42.33528 -70.96582 590 ft 132 kts 314°
2026-05-07 13:39 42.34175 -70.97445 394 ft 131 kts 313°
2026-05-07 13:39 42.34821 -70.98311 258 ft 130 kts 313°
2026-05-07 13:39 42.35466 -70.99168 66 ft 130 kts 313°
2026-05-07 13:39 42.36074 -70.99989 29 ft 114 kts 316°
2026-05-07 13:40 42.36526 -71.00588 26 ft 65 kts 316°
2026-05-07 13:40 42.36746 -71.00882 29 ft 30 kts 315°
2026-05-07 13:40 42.36890 -71.01072 29 ft 24 kts 314°
2026-05-07 13:40 42.36921 -71.01187 30 ft 10 kts 226°
2026-05-07 13:41 42.36871 -71.01245 29 ft 9 kts 220°
2026-05-07 13:41 42.36816 -71.01285 27 ft 9 kts 188°
2026-05-07 13:41 42.36768 -71.01253 26 ft 7 kts 151°
2026-05-07 13:41 42.36722 -71.01242 27 ft 6 kts 185°
2026-05-07 13:42 42.36681 -71.01254 26 ft 8 kts 194°
2026-05-07 13:42 42.36594 -71.01289 28 ft 14 kts 198°
2026-05-07 13:42 42.36505 -71.01342 28 ft 14 kts 206°
2026-05-07 13:42 42.36413 -71.01395 28 ft 14 kts 200°
2026-05-07 13:43 42.36318 -71.01440 26 ft 14 kts 199°
2026-05-07 13:43 42.36225 -71.01486 28 ft 14 kts 200°
2026-05-07 13:43 42.36132 -71.01530 27 ft 14 kts 199°
2026-05-07 13:43 42.36042 -71.01574 27 ft 14 kts 200°
2026-05-07 13:44 42.35952 -71.01618 29 ft 14 kts 200°
2026-05-07 13:44 42.35903 -71.01701 29 ft 12 kts 279°
2026-05-07 13:44 42.35946 -71.01742 28 ft 5 kts 352°
2026-05-07 13:44 42.35976 -71.01747 28 ft 0 kts 353°